EW7812 Weather Reports


time (UTC)temp
C
wind
direction
speed
KPH
gust
KPH
rain 1hr
cm
rain 24hr
cm
rain mn
cm
humidity
%
barometer
mb
20260906214318 27 133 4.8 0.0 0.00 0.00 0.00 37 1001.4
20260906213819 27 176 9.7 0.0 0.00 0.00 0.00 38 1001.4
20260906213319 26 57 1.6 0.0 0.00 0.00 0.00 38 1002.0
20260906212819 26 141 9.7 0.0 0.00 0.00 0.00 38 1002.0
20260906212242 26 44 3.2 0.0 0.00 0.00 0.00 38 1002.0
20260906211744 26 101 3.2 0.0 0.00 0.00 0.00 38 1002.0
20260906211317 27 163 16.1 0.0 0.00 0.00 0.00 37 1001.7
20260906210818 27 130 1.6 0.0 0.00 0.00 0.00 37 1001.4
20260906210242 27 121 0.0 0.0 0.00 0.00 0.00 38 1001.7
20260906205817 27 53 3.2 0.0 0.00 0.00 0.00 38 1001.4
20260906205242 27 168 6.4 0.0 0.00 0.00 0.00 37 1001.4
20260906204741 27 207 6.4 0.0 0.00 0.00 0.00 37 1001.4
20260906204317 27 179 6.4 0.0 0.00 0.00 0.00 39 1001.4
20260906203739 26 71 4.8 0.0 0.00 0.00 0.00 40 1002.0
20260906203241 26 127 6.4 0.0 0.00 0.00 0.00 40 1002.0
20260906202742 26 245 1.6 0.0 0.00 0.00 0.00 40 1002.0
20260906202242 26 128 4.8 0.0 0.00 0.00 0.00 39 1002.0
20260906201743 26 115 1.6 0.0 0.00 0.00 0.00 38 1001.7
20260906201238 27 61 8.0 0.0 0.00 0.00 0.00 37 1001.4
20260906200741 27 74 11.3 0.0 0.00 0.00 0.00 36 1001.4
20260906200241 28 141 6.4 0.0 0.00 0.00 0.00 36 1001.0
20260906195736 27 48 4.8 0.0 0.00 0.00 0.00 37 1001.0
20260906195238 27 80 4.8 0.0 0.00 0.00 0.00 36 1001.4
20260906194739 27 204 8.0 0.0 0.00 0.00 0.00 37 1001.4
20260906194238 27 196 1.6 0.0 0.00 0.00 0.00 37 1001.4
20260906193738 27 222 4.8 0.0 0.00 0.00 0.00 38 1001.4
20260906193238 27 127 1.6 0.0 0.00 0.00 0.00 39 1002.0
20260906192744 27 165 19.3 0.0 0.00 0.00 0.00 38 1001.4
20260906192244 27 191 9.7 0.0 0.00 0.00 0.00 38 1001.4
20260906191804 27 179 11.3 0.0 0.00 0.00 0.00 39 1001.4
20260906191237 27 132 11.3 0.0 0.00 0.00 0.00 39 1001.7
20260906190738 26 207 8.0 0.0 0.00 0.00 0.00 40 1002.0
20260906190243 26 141 9.7 0.0 0.00 0.00 0.00 41 1002.4
20260906185738 27 158 8.0 0.0 0.00 0.00 0.00 39 1001.7
20260906185240 27 127 9.7 0.0 0.00 0.00 0.00 39 1001.7
20260906184737 27 146 1.6 0.0 0.00 0.00 0.00 37 1001.7
20260906184244 27 46 11.3 0.0 0.00 0.00 0.00 36 1002.0
20260906183740 27 146 0.0 0.0 0.00 0.00 0.00 37 1002.0
20260906183241 27 164 0.0 0.0 0.00 0.00 0.00 38 1002.0
20260906182743 27 205 4.8 0.0 0.00 0.00 0.00 38 1002.0
20260906182242 27 103 1.6 0.0 0.00 0.00 0.00 39 1002.4
20260906181742 27 96 4.8 0.0 0.00 0.00 0.00 39 1002.4
20260906181237 27 119 1.6 0.0 0.00 0.00 0.00 39 1002.4
20260906180737 27 145 6.4 0.0 0.00 0.00 0.00 39 1002.4
20260906180240 26 67 3.2 0.0 0.00 0.00 0.00 39 1003.0
20260906175737 26 173 6.4 0.0 0.00 0.00 0.00 39 1002.7
20260906175238 26 148 4.8 0.0 0.00 0.00 0.00 38 1002.7
20260906174740 26 137 3.2 0.0 0.00 0.00 0.00 38 1003.0
20260906174241 26 46 1.6 0.0 0.00 0.00 0.00 38 1003.0
20260906173742 26 84 1.6 0.0 0.00 0.00 0.00 39 1003.0
20260906173241 26 248 19.3 0.0 0.00 0.00 0.00 39 1002.7
20260906172737 27 173 4.8 0.0 0.00 0.00 0.00 38 1002.7
20260906172305 26 244 6.4 0.0 0.00 0.00 0.00 38 1002.7
20260906171759 26 49 4.8 0.0 0.00 0.00 0.00 38 1003.4
20260906171301 26 144 4.8 0.0 0.00 0.00 0.00 37 1003.7
20260906170758 26 38 3.2 0.0 0.00 0.00 0.00 38 1003.7
20260906170258 26 205 11.3 0.0 0.00 0.00 0.00 37 1003.7
20260906165756 26 140 4.8 0.0 0.00 0.00 0.00 37 1003.0
20260906165259 26 63 3.2 0.0 0.00 0.00 0.00 37 1003.4
20260906164801 26 75 0.0 0.0 0.00 0.00 0.00 37 1003.7
20260906164315 26 214 3.2 0.0 0.00 0.00 0.00 36 1003.7
20260906163814 26 198 4.8 0.0 0.00 0.00 0.00 36 1003.7
20260906163240 25 144 1.6 0.0 0.00 0.00 0.00 36 1003.7
20260906162738 25 196 16.1 0.0 0.00 0.00 0.00 36 1003.7
20260906162219 25 202 4.8 0.0 0.00 0.00 0.00 36 1004.1
20260906161737 25 211 8.0 0.0 0.00 0.00 0.00 36 1004.4
20260906161339 25 188 1.6 0.0 0.00 0.00 0.00 36 1004.4
20260906160838 25 188 6.4 0.0 0.00 0.00 0.00 37 1004.1
20260906160340 25 232 1.6 0.0 0.00 0.00 0.00 37 1004.4
20260906155820 25 230 4.8 0.0 0.00 0.00 0.00 37 1003.4
20260906155330 25 83 0.0 0.0 0.00 0.00 0.00 38 1003.4
20260906154837 24 84 0.0 0.0 0.00 0.00 0.00 40 1003.4
20260906154353 23 83 0.0 0.0 0.00 0.00 0.00 42 1003.7
20260906153844 23 191 1.6 0.0 0.00 0.00 0.00 41 1004.1
20260906153320 23 209 1.6 0.0 0.00 0.00 0.00 42 1003.7
20260906152840 22 274 0.0 0.0 0.00 0.00 0.00 43 1004.4
20260906152400 22 355 0.0 0.0 0.00 0.00 0.00 44 1004.4
20260906151813 21 46 1.6 0.0 0.00 0.00 0.00 46 1004.7
20260906151336 21 34 3.2 0.0 0.00 0.00 0.00 46 1005.1
20260906150904 20 13 1.6 0.0 0.00 0.00 0.00 46 1005.8
20260906150428 20 355 3.2 0.0 0.00 0.00 0.00 47 1005.8
20260906145951 20 346 4.8 0.0 0.00 0.00 0.00 48 1006.4
20260906145400 20 5 6.4 0.0 0.00 0.00 0.00 49 1006.4
20260906144820 19 23 8.0 0.0 0.00 0.00 0.00 50 1006.4
20260906144349 18 355 8.0 0.0 0.00 0.00 0.00 51 1007.1
20260906143816 18 28 6.4 0.0 0.00 0.00 0.00 52 1007.1
20260906143338 17 342 8.0 0.0 0.00 0.00 0.00 54 1007.5
20260906142803 17 360 3.2 0.0 0.00 0.00 0.00 55 1007.5
20260906142325 17 355 1.6 0.0 0.00 0.00 0.00 56 1007.5
20260906141848 16 350 3.2 0.0 0.00 0.00 0.00 57 1008.1
20260906141311 16 16 3.2 0.0 0.00 0.00 0.00 57 1007.8
20260906140847 16 348 1.6 0.0 0.00 0.00 0.00 57 1008.1
20260906140314 16 345 4.8 0.0 0.00 0.00 0.00 58 1008.1
20260906135849 16 311 3.2 0.0 0.00 0.00 0.00 60 1007.1
20260906135325 15 346 8.0 0.0 0.00 0.00 0.00 61 1007.5
20260906134813 15 360 3.2 0.0 0.00 0.00 0.00 62 1007.5
20260906134349 14 5 3.2 0.0 0.00 0.00 0.00 62 1007.8
20260906133832 14 24 4.8 0.0 0.00 0.00 0.00 62 1007.8
20260906133317 14 360 3.2 0.0 0.00 0.00 0.00 63 1008.1
20260906132806 14 15 4.8 0.0 0.00 0.00 0.00 63 1007.8
20260906132251 14 300 8.0 0.0 0.00 0.00 0.00 63 1007.8
20260906131844 14 355 3.2 0.0 0.00 0.00 0.00 63 1007.8
20260906131337 14 355 6.4 0.0 0.00 0.00 0.00 63 1007.8
20260906130822 14 5 4.8 0.0 0.00 0.00 0.00 63 1007.8
20260906130313 14 9 4.8 0.0 0.00 0.00 0.00 63 1007.8
20260906125750 14 11 3.2 0.0 0.00 0.00 0.00 62 1006.8
20260906125239 14 315 6.4 0.0 0.00 0.00 0.00 62 1006.8
20260906124730 14 333 4.8 0.0 0.00 0.00 0.00 62 1006.8
20260906124224 14 360 6.4 0.0 0.00 0.00 0.00 62 1006.8
20260906123714 15 11 6.4 0.0 0.00 0.00 0.00 61 1006.1
20260906123215 15 308 9.7 0.0 0.00 0.00 0.00 61 1006.1
20260906122715 15 336 9.7 0.0 0.00 0.00 0.00 61 1006.1
20260906122215 15 295 6.4 0.0 0.00 0.00 0.00 61 1006.1
20260906121714 15 29 6.4 0.0 0.00 0.00 0.00 61 1006.1
20260906121213 15 344 4.8 0.0 0.00 0.00 0.00 61 1006.1
20260906120704 15 332 8.0 0.0 0.00 0.00 0.00 62 1006.4
20260906120215 15 319 4.8 0.0 0.00 0.00 0.00 62 1006.1
20260906115701 15 9 9.7 0.0 0.00 0.00 0.00 61 1005.1
20260906115202 15 355 6.4 0.0 0.00 0.00 0.00 61 1005.1
20260906114703 15 314 1.6 0.0 0.00 0.00 0.00 60 1004.7
20260906114202 15 318 9.7 0.0 0.00 0.00 0.00 60 1004.7
20260906113705 15 288 6.4 0.0 0.00 0.00 0.00 61 1004.7
20260906113201 15 43 6.4 0.0 0.00 0.00 0.00 61 1005.4
20260906112659 15 302 3.2 0.0 0.00 0.00 0.00 61 1005.1
20260906112200 15 311 11.3 0.0 0.00 0.00 0.00 62 1005.1
20260906111659 15 292 8.0 0.0 0.00 0.00 0.00 61 1005.1
20260906111159 15 294 1.6 0.0 0.00 0.00 0.00 61 1005.1
20260906110658 15 293 8.0 0.0 0.00 0.00 0.00 62 1005.4
20260906110159 15 323 6.4 0.0 0.00 0.00 0.00 62 1005.1
20260906105658 15 21 6.4 0.0 0.00 0.00 0.00 62 1004.7
20260906105159 15 311 3.2 0.0 0.00 0.00 0.00 62 1004.7
20260906104657 15 327 1.6 0.0 0.00 0.00 0.00 62 1004.7
20260906104159 15 299 4.8 0.0 0.00 0.00 0.00 63 1004.7
20260906103658 14 285 4.8 0.0 0.00 0.00 0.00 63 1004.7
20260906103159 14 309 8.0 0.0 0.00 0.00 0.00 63 1005.1
20260906102656 14 277 3.2 0.0 0.00 0.00 0.00 63 1005.1
20260906102157 14 344 6.4 0.0 0.00 0.00 0.00 63 1005.1
20260906101656 14 342 3.2 0.0 0.00 0.00 0.00 63 1005.1
20260906101158 15 9 4.8 0.0 0.00 0.00 0.00 63 1004.7
20260906100659 15 318 4.8 0.0 0.00 0.00 0.00 63 1004.7
20260906100156 15 13 4.8 0.0 0.00 0.00 0.00 63 1004.7
20260906095656 15 360 4.8 0.0 0.00 0.00 0.00 63 1004.7
20260906095157 15 31 6.4 0.0 0.00 0.00 0.00 63 1004.7
20260906094655 15 321 3.2 0.0 0.00 0.00 0.00 63 1004.7
20260906094154 15 26 4.8 0.0 0.00 0.00 0.00 62 1005.1
20260906093653 15 9 4.8 0.0 0.00 0.00 0.00 63 1005.1
20260906093154 15 287 0.0 0.0 0.00 0.00 0.00 62 1005.1
20260906092653 15 287 1.6 0.0 0.00 0.00 0.00 62 1005.1
20260906092153 15 306 3.2 0.0 0.00 0.00 0.00 62 1005.1
20260906091652 15 306 0.0 0.0 0.00 0.00 0.00 62 1005.1
20260906091154 15 311 3.2 0.0 0.00 0.00 0.00 62 1005.1
20260906090653 15 327 0.0 0.0 0.00 0.00 0.00 62 1005.1
20260906090152 16 340 3.2 0.0 0.00 0.00 0.00 62 1004.4
20260906085653 16 293 1.6 0.0 0.00 0.00 0.00 62 1004.7
20260906085152 16 284 4.8 0.0 0.00 0.00 0.00 62 1004.7
20260906084651 16 285 1.6 0.0 0.00 0.00 0.00 62 1004.7
20260906084151 16 284 1.6 0.0 0.00 0.00 0.00 62 1004.7
20260906083652 16 298 3.2 0.0 0.00 0.00 0.00 62 1004.7
20260906083151 16 277 4.8 0.0 0.00 0.00 0.00 62 1004.7
20260906082649 16 294 3.2 0.0 0.00 0.00 0.00 62 1004.7
20260906082150 16 250 6.4 0.0 0.00 0.00 0.00 62 1004.7
20260906081655 16 318 3.2 0.0 0.00 0.00 0.00 62 1004.4
20260906081151 16 288 6.4 0.0 0.00 0.00 0.00 62 1004.4
20260906080648 17 325 3.2 0.0 0.00 0.00 0.00 62 1004.4
20260906080152 17 319 3.2 0.0 0.00 0.00 0.00 61 1004.4
20260906075648 17 355 4.8 0.0 0.00 0.00 0.00 61 1004.7
20260906075148 17 49 8.0 0.0 0.00 0.00 0.00 61 1004.7
20260906074647 17 360 8.0 0.0 0.00 0.00 0.00 61 1004.4
20260906074148 17 330 4.8 0.0 0.00 0.00 0.00 60 1004.4
20260906073646 17 350 12.9 0.0 0.00 0.00 0.00 61 1004.4
20260906073146 17 17 9.7 0.0 0.00 0.00 0.00 61 1004.7
20260906072647 17 332 4.8 0.0 0.00 0.00 0.00 60 1004.7
20260906072146 17 306 3.2 0.0 0.00 0.00 0.00 60 1004.7
20260906071646 17 17 4.8 0.0 0.00 0.00 0.00 60 1004.7
20260906071145 17 306 4.8 0.0 0.00 0.00 0.00 61 1004.7
20260906070648 17 321 1.6 0.0 0.00 0.00 0.00 61 1004.7
20260906070148 17 304 4.8 0.0 0.00 0.00 0.00 62 1005.1
20260906065644 17 17 1.6 0.0 0.00 0.00 0.00 62 1004.1
20260906065144 17 322 4.8 0.0 0.00 0.00 0.00 62 1004.1
20260906064642 17 345 4.8 0.0 0.00 0.00 0.00 61 1004.1
20260906064144 17 298 0.0 0.0 0.00 0.00 0.00 61 1004.1
20260906063643 17 311 0.0 0.0 0.00 0.00 0.00 60 1004.1
20260906063144 18 292 0.0 0.0 0.00 0.00 0.00 60 1003.7
20260906062643 18 319 3.2 0.0 0.00 0.00 0.00 60 1003.7
20260906062143 18 311 6.4 0.0 0.00 0.00 0.00 60 1004.1
20260906061642 18 298 4.8 0.0 0.00 0.00 0.00 60 1003.7
20260906061141 17 295 6.4 0.0 0.00 0.00 0.00 60 1003.7
20260906060743 18 296 4.8 0.0 0.00 0.00 0.00 60 1003.7
20260906060242 18 345 1.6 0.0 0.00 0.00 0.00 60 1003.7
20260906055740 18 355 4.8 0.0 0.00 0.00 0.00 60 1003.7
20260906055242 17 277 11.3 0.0 0.00 0.00 0.00 61 1004.1
20260906054741 17 345 3.2 0.0 0.00 0.00 0.00 61 1003.7
20260906054241 17 355 0.0 0.0 0.00 0.00 0.00 62 1003.7
20260906053739 18 337 1.6 0.0 0.00 0.00 0.00 61 1004.1
20260906053241 18 332 1.6 0.0 0.00 0.00 0.00 62 1004.1
20260906052740 18 360 3.2 0.0 0.00 0.00 0.00 62 1004.1
20260906052240 17 338 4.8 0.0 0.00 0.00 0.00 62 1004.7
20260906051740 17 350 6.4 0.0 0.00 0.00 0.00 62 1004.7
20260906051238 17 19 6.4 0.0 0.00 0.00 0.00 62 1004.7
20260906050737 17 360 6.4 0.0 0.00 0.00 0.00 62 1004.4
20260906050238 18 323 3.2 0.0 0.00 0.00 0.00 62 1004.1
20260906045738 19 19 4.8 0.0 0.00 0.00 0.00 61 1003.7
20260906045236 19 153 0.0 0.0 0.00 0.00 0.00 59 1004.1
20260906044736 19 321 3.2 0.0 0.00 0.00 0.00 58 1004.1
20260906044236 20 25 14.5 0.0 0.00 0.00 0.00 56 1003.4
20260906043735 20 355 6.4 0.0 0.00 0.00 0.00 55 1003.0
20260906043236 20 29 16.1 0.0 0.00 0.00 0.00 54 1003.0
20260906042735 20 355 14.5 0.0 0.00 0.00 0.00 53 1003.0
20260906042235 20 265 16.1 0.0 0.00 0.00 0.00 54 1003.0
20260906041734 20 284 6.4 0.0 0.00 0.00 0.00 53 1003.0
20260906041234 20 341 24.1 0.0 0.00 0.00 0.00 52 1002.7
20260906040735 20 15 8.0 0.0 0.00 0.00 0.00 51 1002.7
20260906040234 21 355 9.7 0.0 0.00 0.00 0.00 50 1002.4
20260906035733 21 11 3.2 0.0 0.00 0.00 0.00 48 1003.7
20260906035233 21 13 20.9 0.0 0.00 0.00 0.00 47 1003.7
20260906034733 21 314 9.7 0.0 0.00 0.00 0.00 46 1003.7
20260906034233 21 305 8.0 0.0 0.00 0.00 0.00 45 1003.7
20260906033734 21 281 4.8 0.0 0.00 0.00 0.00 45 1004.1
20260906033231 21 331 3.2 0.0 0.00 0.00 0.00 46 1003.7
20260906032733 20 5 6.4 0.0 0.00 0.00 0.00 46 1003.7
20260906032233 20 310 6.4 0.0 0.00 0.00 0.00 47 1003.7
20260906031733 20 340 8.0 0.0 0.00 0.00 0.00 47 1003.4
20260906031233 20 360 8.0 0.0 0.00 0.00 0.00 47 1003.4
20260906030731 20 336 4.8 0.0 0.00 0.00 0.00 48 1003.4
20260906030231 20 320 6.4 0.0 0.00 0.00 0.00 48 1003.0
20260906025730 20 360 9.7 0.0 0.00 0.00 0.00 48 1004.4
20260906025231 20 360 6.4 0.0 0.00 0.00 0.00 47 1004.4
20260906024732 20 316 4.8 0.0 0.00 0.00 0.00 47 1004.1
20260906024230 20 270 3.2 0.0 0.00 0.00 0.00 47 1004.1
20260906023730 20 5 9.7 0.0 0.00 0.00 0.00 47 1004.1
20260906023230 21 350 14.5 0.0 0.00 0.00 0.00 46 1004.1
20260906022730 21 19 9.7 0.0 0.00 0.00 0.00 45 1003.7
20260906022230 21 349 6.4 0.0 0.00 0.00 0.00 44 1003.4
20260906021729 21 16 11.3 0.0 0.00 0.00 0.00 43 1003.4
20260906021230 22 22 14.5 0.0 0.00 0.00 0.00 42 1003.0
20260906020729 22 34 9.7 0.0 0.00 0.00 0.00 41 1003.0
20260906020229 22 360 8.0 0.0 0.00 0.00 0.00 40 1002.7
20260906015729 22 276 4.8 0.0 0.00 0.00 0.00 39 1004.7
20260906015230 23 291 4.8 0.0 0.00 0.00 0.00 38 1005.1
20260906014729 23 283 6.4 0.0 0.00 0.00 0.00 37 1004.7
20260906014230 23 270 11.3 0.0 0.00 0.00 0.00 36 1004.7
20260906013727 23 330 8.0 0.0 0.00 0.00 0.00 36 1004.7
20260906013227 23 335 6.4 0.0 0.00 0.00 0.00 36 1004.7
20260906012727 23 328 4.8 0.0 0.00 0.00 0.00 36 1004.7
20260906012228 24 295 3.2 0.0 0.00 0.00 0.00 36 1004.4
20260906011727 24 304 9.7 0.0 0.00 0.00 0.00 36 1004.4
20260906011228 24 341 8.0 0.0 0.00 0.00 0.00 36 1004.4
20260906010725 24 331 9.7 0.0 0.00 0.00 0.00 35 1004.4
20260906010227 24 277 8.0 0.0 0.00 0.00 0.00 35 1004.4
20260906005726 24 265 11.3 0.0 0.00 0.00 0.00 35 1005.1
20260906005224 25 314 9.7 0.0 0.00 0.00 0.00 35 1004.7
20260906004732 25 244 9.7 0.0 0.00 0.00 0.00 34 1005.1
20260906004225 25 284 8.0 0.0 0.00 0.00 0.00 34 1004.7
20260906003724 25 302 8.0 0.0 0.00 0.00 0.00 33 1004.4
20260906003225 25 5 6.4 0.0 0.00 0.00 0.00 33 1004.4
20260906002725 25 340 17.7 0.0 0.00 0.00 0.00 32 1004.1
20260906002224 26 5 9.7 0.0 0.00 0.00 0.00 32 1004.1
20260906001724 27 33 8.0 0.0 0.00 0.00 0.00 30 1003.7
20260906001224 27 60 0.0 0.0 0.00 0.00 0.00 29 1003.7
20260906000724 27 134 0.0 0.0 0.00 0.00 0.00 28 1003.7
20260906000224 27 133 4.8 0.0 0.00 0.00 0.00 28 1003.0
20260905235724 27 73 1.6 0.0 0.00 0.00 0.00 28 1003.0
20260905235223 27 134 3.2 0.0 0.00 0.00 0.00 28 1003.0
20260905234723 27 135 6.4 0.0 0.00 0.00 0.00 28 1003.0
20260905234224 28 150 9.7 0.0 0.00 0.00 0.00 27 1002.4
20260905233723 28 113 0.0 0.0 0.00 0.00 0.00 27 1002.4
20260905233223 28 161 3.2 0.0 0.00 0.00 0.00 27 1002.4
20260905232724 28 25 6.4 0.0 0.00 0.00 0.00 27 1002.4
20260905232223 28 47 0.0 0.0 0.00 0.00 0.00 27 1002.4
20260905231722 28 289 9.7 0.0 0.00 0.00 0.00 26 1001.7
20260905231224 29 355 4.8 0.0 0.00 0.00 0.00 27 1002.4
20260905230723 28 297 3.2 0.0 0.00 0.00 0.00 27 1002.4
20260905230222 28 194 9.7 0.0 0.00 0.00 0.00 27 1002.4
20260905225723 27 241 9.7 0.0 0.00 0.00 0.00 27 1002.7
20260905225223 27 190 17.7 0.0 0.00 0.00 0.00 28 1002.7